Weather History for Chillicothe, MO

Change the Weather History Date:

Tuesday, March 12, 2013

  Actual Average (KIRK) Record (KIRK)
Temperature  
Mean Temperature 32 °F 39 °F  
Max Temperature 42 °F 49 °F 77 °F (1990)
Min Temperature 23 °F 29 °F -5 °F (1948)
Degree Days  
Heating Degree Days 33 26  
Month to date heating degree days 339  
Since 1 July heating degree days 4872  
Cooling Degree Days 0 0  
Month to date cooling degree days 0  
Year to date cooling degree days 0  
Moisture  
Dew Point 21 °F    
Average Humidity 65    
Maximum Humidity 85    
Minimum Humidity 53    
Precipitation  
Precipitation 0.00 in 0.09 in 1.25 in (1939)
Month to date precipitation 0.99  
Year to date precipitation 3.79  
Sea Level Pressure  
Sea Level Pressure 30.20 in    
Wind  
Wind Speed 6 mph (WNW)    
Max Wind Speed 16 mph    
Max Gust Speed 26 mph    
T = Trace of Precipitation, MM = Missing Value Source: NWS Daily Summary

Daily Weather History Graph

Daily Weather History Graph

Search for Another Location

Airport:

Trip Planner

Search our weather history database for the weather conditions in past years. The results will help you decide how hot, cold, wet, or windy it might be!

Date:

Astronomy

Mar. 12, 2013 Rise Set
Actual Time 7:30 AM CDT 7:18 PM CDT
Civil Twilight 7:03 AM CDT 7:45 PM CDT
Nautical Twilight 6:31 AM CDT 8:16 PM CDT
Astronomical Twilight 6:00 AM CDT 8:48 PM CDT
Moon 7:37 AM CDT (3/12) 8:34 PM CDT (3/12)
Length of Visible Light 12h 42m
Length of Day
11h 48m
New Moon, 1% of the Moon is Illuminated
Mar 12
New Moon
Mar 19
First Quarter
Mar 27
Full
Apr 2
Last Quarter
Apr 10
New

Hourly Weather History & Observations

Time (CDT) Temp. Windchill Dew Point Humidity Pressure Visibility Wind Dir Wind Speed Gust Speed Precip Events Conditions
12:52 AM 28.0 °F 24.2 °F 21.0 °F 75% 30.06 in - West 3.5 mph - N/A   Unknown
1:52 AM 28.9 °F - 19.9 °F 69% 30.06 in - Calm Calm - N/A   Unknown
2:52 AM 26.1 °F - 21.0 °F 81% 30.09 in - Calm Calm - N/A   Unknown
3:52 AM 23.0 °F - 19.0 °F 85% 30.09 in - Calm Calm - N/A   Unknown
4:52 AM 27.0 °F 23.0 °F 19.9 °F 75% 30.10 in - West 3.5 mph - N/A   Unknown
5:52 AM 27.0 °F 20.5 °F 19.0 °F 72% 30.12 in - WNW 5.8 mph - N/A   Unknown
6:52 AM 28.0 °F 21.7 °F 19.9 °F 72% 30.13 in - NNW 5.8 mph - N/A   Unknown
7:52 AM 27.0 °F - 19.9 °F 75% 30.14 in - Calm Calm - N/A   Unknown
8:52 AM 30.0 °F 23.2 °F 21.0 °F 69% 30.18 in - West 6.9 mph - N/A   Unknown
9:52 AM 33.1 °F 25.5 °F 24.1 °F 70% 30.17 in - SW 9.2 mph - N/A   Unknown
10:52 AM 37.9 °F 32.1 °F 26.1 °F 62% 30.19 in - WSW 8.1 mph - N/A   Unknown
11:52 AM 41.0 °F 33.5 °F 25.0 °F 53% 30.18 in - WNW 13.8 mph 23.0 mph N/A   Unknown
12:52 PM 39.0 °F 33.4 °F 23.0 °F 53% 30.21 in - WNW 8.1 mph 25.3 mph N/A   Unknown
1:52 PM 37.9 °F 28.9 °F 21.9 °F 53% 30.22 in - West 16.1 mph 23.0 mph N/A   Unknown
2:52 PM 37.9 °F 32.7 °F 23.0 °F 55% 30.22 in - West 6.9 mph 21.9 mph N/A   Unknown
3:52 PM 39.0 °F 32.8 °F 23.0 °F 53% 30.22 in - WNW 9.2 mph 18.4 mph N/A   Unknown
4:52 PM 37.0 °F 27.7 °F 24.1 °F 59% 30.24 in - WNW 16.1 mph 26.5 mph N/A   Unknown
5:52 PM 37.0 °F 29.3 °F 23.0 °F 57% 30.25 in - WNW 11.5 mph 19.6 mph N/A   Unknown
6:52 PM 35.1 °F 26.9 °F 21.9 °F 59% 30.28 in - WNW 11.5 mph 25.3 mph N/A   Unknown
7:52 PM 34.0 °F 24.6 °F 19.9 °F 56% 30.29 in - WNW 13.8 mph 24.2 mph N/A   Unknown
8:52 PM 33.1 °F 23.9 °F 19.9 °F 59% 30.30 in - WNW 12.7 mph - N/A   Unknown
9:52 PM 32.0 °F 22.1 °F 19.0 °F 59% 30.32 in - NW 13.8 mph 21.9 mph N/A   Unknown
10:52 PM 30.9 °F 20.2 °F 19.9 °F 64% 30.33 in - NW 15.0 mph 20.7 mph N/A   Unknown
11:52 PM 30.0 °F 22.4 °F 19.9 °F 66% 30.35 in - NW 8.1 mph - N/A   Unknown